Current weather by "City, St" or "zip code"  
 
Advertise Here

Current Conditions: Homerville Airport, GA

Fog/Mist


77.0 F

Last Updated on Jul 27 2021, 1:50 am EDT
Humidity: 96%
Wind Speed: N 0.0 mph
Barometer 29.97 in
Dewpoint: 76.1 F
Visibility: 5.00 mi
Precip: --
Heat Index: NA
Wind Chill: NA
Current conditions at:

Homerville Airport, GA (KHOE)

Lat: 31.0559 Lon: 82.7741

Local Radar Image active severe weather and emergency alerts image image weather storm and storm spotter reports image weather observation monitoring service image
Local
Radar
Active
Alerts
Storm Reports Obs
Monitoring

Sign-up For Email & Text Message Weather Alert Notification Services


Advertise Here

Observation History for Homerville Airport, GA


Time Wind
(mph)
Vis
(mi)
Weather Precip (in) Temperature (F) Relative
Humidity
Wind
Chill
(F)
Heat
Index
(F)
Pressure
Air Dwpt altimeter
(in)
sea level
(mb)
Rmks
1:50 am EDT N 0.0 5.00 Fog/Mist -- 77.0 76.1 96% NA NA 29.97 M
1:30 am EDT N 0.0 5.00 Fog/Mist -- 78.0 76.1 95% NA NA 29.98 M
12:50 am EDT N 0.0 5.00 Fog/Mist -- 78.0 76.3 94% NA NA 29.99 M
11:50 pm EDT N 0.0 7.00 Thunderstorm in Vicinity -- 78.0 76.6 94% NA NA 29.99 M
10:50 pm EDT N 0.0 10.00 Overcast -- 79.0 77.5 95% NA NA 29.98 M
9:50 pm EDT N 0.0 7.00 Overcast -- 79.0 77.2 94% NA NA 29.96 M
9:35 pm EDT N 0.0 7.00 Mostly Cloudy -- 79.0 77.4 95% NA NA 29.96 M
8:55 pm EDT N 0.0 10.00 Mostly Cloudy -- 79.0 77.4 94% NA NA 29.95 M
8:30 pm EDT N 0.0 10.00 Partly Cloudy -- 79.0 77.5 94% NA NA 29.94 M
7:55 pm EDT N 0.0 10.00 Overcast -- 79.0 77.0 93% NA NA 29.92 M
6:55 pm EDT N 0.0 7.00 Thunderstorm Light Rain -- 83.0 77.0 82% NA 92 29.92 M
5:50 pm EDT N 4.6 10.00 Mostly Cloudy -- 90.0 73.4 58% NA 99 29.92 M
4:55 pm EDT N 4.6 10.00 Thunderstorm in Vicinity -- 90.0 72.5 56% NA 97 29.92 M
4:30 pm EDT NE 8.1 10.00 Fair -- 90.0 72.1 56% NA 97 29.93 M
3:50 pm EDT N 5.8 10.00 Fair -- 90.0 72.3 56% NA 97 29.94 M
3:30 pm EDT NE 9.2 10.00 Fair -- 91.0 72.7 56% NA 100 29.95 M
2:50 pm EDT NW 3.5 10.00 Fair -- 88.0 73.6 62% NA 96 29.95 M
1:50 pm EDT NW 4.6 10.00 Mostly Cloudy -- 86.0 72.9 65% NA 93 29.97 M
12:50 pm EDT W 4.6 10.00 Mostly Cloudy -- 84.0 74.5 74% NA 92 29.97 M
12:35 pm EDT NW 3.5 10.00 Overcast -- 83.0 73.4 74% NA 89 29.98 M
11:55 am EDT N 4.6 10.00 Mostly Cloudy -- 84.0 72.0 68% NA 90 29.99 M
11:30 am EDT N 4.6 10.00 Partly Cloudy -- 85.0 71.8 66% NA 91 29.99 M
8:30 am EDT N 0.0 7.00 Fair -- 74.0 72.1 95% NA NA 29.99 M
7:35 am EDT N 0.0 5.00 Fog/Mist -- 73.0 71.2 95% NA NA 29.97 M

Regional Weather Observation


Douglas, Douglas Municipal Airport, GA (KDQH)

Partly Cloudy
76.0 F

Waycross / Ware County, Ga, GA (KAYS)

Fair
78.0 F

Alma, Bacon County Airport, GA (KAMG)

Fair
76.0 F

Fitzgerald Municipal Airport, GA (KFZG)

Fair
78.0 F

Tifton Henry Tift Myers, GA (KTMA)

Partly Cloudy
80.0 F

Moody Air Force Base, GA (KVAD)

Fair
80.0 F
Advertise Here

Advertise Here